Year,Month,Day,Hour,Minute,Value (Times are PST for temperature in C)
2008,05,16,00,00,10.30
2008,05,16,00,01,10.40
2008,05,16,00,02,10.40
2008,05,16,00,03,10.40
2008,05,16,00,04,10.40
2008,05,16,00,05,10.40
2008,05,16,00,06,10.40
2008,05,16,00,07,10.40
2008,05,16,00,08,10.40
2008,05,16,00,09,10.40
2008,05,16,00,10,10.30
2008,05,16,00,11,10.30
2008,05,16,00,12,10.20
2008,05,16,00,13,10.20
2008,05,16,00,14,10.10
2008,05,16,00,15,10.10
2008,05,16,00,16,10.10
2008,05,16,00,17,10.10
2008,05,16,00,18,10.10
2008,05,16,00,19,10.10
2008,05,16,00,20,10.10
2008,05,16,00,21,10.00
2008,05,16,00,22,9.90
2008,05,16,00,23,9.90
2008,05,16,00,24,9.90
2008,05,16,00,25,9.90
2008,05,16,00,26,9.90
2008,05,16,00,27,9.80
2008,05,16,00,28,9.80
2008,05,16,00,29,9.70
2008,05,16,00,30,9.70
2008,05,16,00,31,9.70
2008,05,16,00,32,9.70
2008,05,16,00,33,9.70
2008,05,16,00,34,9.70
2008,05,16,00,35,9.70
2008,05,16,00,36,9.70
2008,05,16,00,37,9.70
2008,05,16,00,38,9.70
2008,05,16,00,39,9.70
2008,05,16,00,40,9.70
2008,05,16,00,41,9.70
2008,05,16,00,42,9.70
2008,05,16,00,43,9.70
2008,05,16,00,44,9.70
2008,05,16,00,45,9.70
2008,05,16,00,46,9.70
2008,05,16,00,47,9.60
2008,05,16,00,48,9.60
2008,05,16,00,49,9.60
2008,05,16,00,50,9.50
2008,05,16,00,51,9.50
2008,05,16,00,52,9.50
2008,05,16,00,53,9.50
2008,05,16,00,54,9.50
2008,05,16,00,55,9.50
2008,05,16,00,56,9.50
2008,05,16,00,57,9.50
2008,05,16,00,58,9.50
2008,05,16,00,59,9.50
2008,05,16,01,00,9.40
2008,05,16,01,01,9.40
2008,05,16,01,02,9.40
2008,05,16,01,03,9.40
2008,05,16,01,04,9.40
2008,05,16,01,05,9.40
2008,05,16,01,06,9.40
2008,05,16,01,07,9.40
2008,05,16,01,08,9.40
2008,05,16,01,09,9.40
2008,05,16,01,10,9.40
2008,05,16,01,11,9.40
2008,05,16,01,12,9.30
2008,05,16,01,13,9.30
2008,05,16,01,14,9.30
2008,05,16,01,15,9.30
2008,05,16,01,16,9.30
2008,05,16,01,17,9.30
2008,05,16,01,18,9.30
2008,05,16,01,19,9.30
2008,05,16,01,20,9.30
2008,05,16,01,21,9.30
2008,05,16,01,22,9.30
2008,05,16,01,23,9.30
2008,05,16,01,24,9.30
2008,05,16,01,25,9.20
2008,05,16,01,26,9.20
2008,05,16,01,27,9.20
2008,05,16,01,28,9.20
2008,05,16,01,29,9.20
2008,05,16,01,30,9.20
2008,05,16,01,31,9.20
2008,05,16,01,32,9.20
2008,05,16,01,33,9.30
2008,05,16,01,34,9.30
2008,05,16,01,35,9.30
2008,05,16,01,36,9.30
2008,05,16,01,37,9.30
2008,05,16,01,38,9.30
2008,05,16,01,39,9.30
2008,05,16,01,40,9.30
2008,05,16,01,41,9.30
2008,05,16,01,42,9.30
2008,05,16,01,43,9.30
2008,05,16,01,44,9.30
2008,05,16,01,45,9.20
2008,05,16,01,46,9.20
2008,05,16,01,47,9.20
2008,05,16,01,48,9.20
2008,05,16,01,49,9.20
2008,05,16,01,50,9.20
2008,05,16,01,51,9.20
2008,05,16,01,52,9.10
2008,05,16,01,53,9.10
2008,05,16,01,54,9.10
2008,05,16,01,55,9.10
2008,05,16,01,56,9.00
2008,05,16,01,57,9.00
2008,05,16,01,58,9.00
2008,05,16,01,59,9.00
2008,05,16,02,00,9.00
2008,05,16,02,01,8.90
2008,05,16,02,02,8.90
2008,05,16,02,03,8.90
2008,05,16,02,04,8.90
2008,05,16,02,05,8.90
2008,05,16,02,06,8.90
2008,05,16,02,07,8.90
2008,05,16,02,08,8.90
2008,05,16,02,09,8.80
2008,05,16,02,10,8.80
2008,05,16,02,11,8.80
2008,05,16,02,12,8.80
2008,05,16,02,13,8.80
2008,05,16,02,14,8.80
2008,05,16,02,15,8.70
2008,05,16,02,16,8.70
2008,05,16,02,17,8.70
2008,05,16,02,18,8.70
2008,05,16,02,19,8.70
2008,05,16,02,20,8.70
2008,05,16,02,21,8.70
2008,05,16,02,22,8.70
2008,05,16,02,23,8.70
2008,05,16,02,24,8.70
2008,05,16,02,25,8.70
2008,05,16,02,26,8.70
2008,05,16,02,27,8.70
2008,05,16,02,28,8.70
2008,05,16,02,29,8.70
2008,05,16,02,30,8.70
2008,05,16,02,31,8.70
2008,05,16,02,32,8.70
2008,05,16,02,33,8.70
2008,05,16,02,34,8.70
2008,05,16,02,35,8.60
2008,05,16,02,36,8.60
2008,05,16,02,37,8.60
2008,05,16,02,38,8.60
2008,05,16,02,39,8.60
2008,05,16,02,40,8.60
2008,05,16,02,41,8.50
2008,05,16,02,42,8.50
2008,05,16,02,43,8.50
2008,05,16,02,44,8.50
2008,05,16,02,45,8.50
2008,05,16,02,46,8.50
2008,05,16,02,47,8.50
2008,05,16,02,48,8.50
2008,05,16,02,49,8.50
2008,05,16,02,50,8.50
2008,05,16,02,51,8.50
2008,05,16,02,52,8.50
2008,05,16,02,53,8.50
2008,05,16,02,54,8.60
2008,05,16,02,55,8.60
2008,05,16,02,56,8.60
2008,05,16,02,57,8.60
2008,05,16,02,58,8.60
2008,05,16,02,59,8.60
2008,05,16,03,00,8.60
2008,05,16,03,01,8.50
2008,05,16,03,02,8.50
2008,05,16,03,03,8.50
2008,05,16,03,04,8.50
2008,05,16,03,05,8.50
2008,05,16,03,06,8.50
2008,05,16,03,07,8.50
2008,05,16,03,08,8.60
2008,05,16,03,09,8.60
2008,05,16,03,10,8.60
2008,05,16,03,11,8.60
2008,05,16,03,12,8.60
2008,05,16,03,13,8.60
2008,05,16,03,14,8.60
2008,05,16,03,15,8.70
2008,05,16,03,16,8.70
2008,05,16,03,17,8.70
2008,05,16,03,18,8.70
2008,05,16,03,19,8.70
2008,05,16,03,20,8.70
2008,05,16,03,21,8.70
2008,05,16,03,22,8.70
2008,05,16,03,23,8.70
2008,05,16,03,24,8.70
2008,05,16,03,25,8.70
2008,05,16,03,26,8.70
2008,05,16,03,27,8.70
2008,05,16,03,28,8.70
2008,05,16,03,29,8.70
2008,05,16,03,30,8.70
2008,05,16,03,31,8.70
2008,05,16,03,32,8.70
2008,05,16,03,33,8.70
2008,05,16,03,34,8.70
2008,05,16,03,35,8.70
2008,05,16,03,36,8.70
2008,05,16,03,37,8.70
2008,05,16,03,38,8.60
2008,05,16,03,39,8.60
2008,05,16,03,40,8.50
2008,05,16,03,41,8.50
2008,05,16,03,42,8.40
2008,05,16,03,43,8.40
2008,05,16,03,44,8.40
2008,05,16,03,45,8.30
2008,05,16,03,46,8.30
2008,05,16,03,47,8.30
2008,05,16,03,48,8.30
2008,05,16,03,49,8.30
2008,05,16,03,50,8.30
2008,05,16,03,51,8.30
2008,05,16,03,52,8.30
2008,05,16,03,53,8.30
2008,05,16,03,54,8.30
2008,05,16,03,55,8.30
2008,05,16,03,56,8.30
2008,05,16,03,57,8.20
2008,05,16,03,58,8.20
2008,05,16,03,59,8.20
2008,05,16,04,00,8.30
2008,05,16,04,01,8.30
2008,05,16,04,02,8.30
2008,05,16,04,03,8.40
2008,05,16,04,04,8.40
2008,05,16,04,05,8.40
2008,05,16,04,06,8.50
2008,05,16,04,07,8.50
2008,05,16,04,08,8.50
2008,05,16,04,09,8.60
2008,05,16,04,10,8.60
2008,05,16,04,11,8.60
2008,05,16,04,12,8.70
2008,05,16,04,13,8.70
2008,05,16,04,14,8.70
2008,05,16,04,15,8.70
2008,05,16,04,16,8.70
2008,05,16,04,17,8.70
2008,05,16,04,18,8.60
2008,05,16,04,19,8.60
2008,05,16,04,20,8.60
2008,05,16,04,21,8.60
2008,05,16,04,22,8.60
2008,05,16,04,23,8.60
2008,05,16,04,24,8.60
2008,05,16,04,25,8.60
2008,05,16,04,26,8.60
2008,05,16,04,27,8.60
2008,05,16,04,28,8.70
2008,05,16,04,29,8.70
2008,05,16,04,30,8.70
2008,05,16,04,31,8.70
2008,05,16,04,32,8.70
2008,05,16,04,33,8.70
2008,05,16,04,34,8.80
2008,05,16,04,35,8.80
2008,05,16,04,36,8.80
2008,05,16,04,37,8.80
2008,05,16,04,38,8.80
2008,05,16,04,39,8.80
2008,05,16,04,40,8.80
2008,05,16,04,41,8.80
2008,05,16,04,42,8.80
2008,05,16,04,43,8.80
2008,05,16,04,44,8.90
2008,05,16,04,45,8.90
2008,05,16,04,46,8.90
2008,05,16,04,47,8.90
2008,05,16,04,48,8.90
2008,05,16,04,49,8.90
2008,05,16,04,50,8.90
2008,05,16,04,51,8.90
2008,05,16,04,52,8.90
2008,05,16,04,53,8.90
2008,05,16,04,54,8.80
2008,05,16,04,55,8.70
2008,05,16,04,56,8.60
2008,05,16,04,57,8.50
2008,05,16,04,58,8.50
2008,05,16,04,59,8.40
2008,05,16,05,00,8.40
2008,05,16,05,01,8.40
2008,05,16,05,02,8.50
2008,05,16,05,03,8.50
2008,05,16,05,04,8.50
2008,05,16,05,05,8.50
2008,05,16,05,06,8.40
2008,05,16,05,07,8.50
2008,05,16,05,08,8.50
2008,05,16,05,09,8.50
2008,05,16,05,10,8.50
2008,05,16,05,11,8.60
2008,05,16,05,12,8.60
2008,05,16,05,13,8.60
2008,05,16,05,14,8.60
2008,05,16,05,15,8.60
2008,05,16,05,16,8.60
2008,05,16,05,17,8.60
2008,05,16,05,18,8.50
2008,05,16,05,19,8.50
2008,05,16,05,20,8.50
2008,05,16,05,21,8.50
2008,05,16,05,22,8.50
2008,05,16,05,23,8.50
2008,05,16,05,24,8.50
2008,05,16,05,25,8.50
2008,05,16,05,26,8.60
2008,05,16,05,27,8.60
2008,05,16,05,28,8.70
2008,05,16,05,29,8.70
2008,05,16,05,30,8.70
2008,05,16,05,31,8.80
2008,05,16,05,32,8.80
2008,05,16,05,33,8.90
2008,05,16,05,34,8.90
2008,05,16,05,35,8.90
2008,05,16,05,36,9.00
2008,05,16,05,37,9.00
2008,05,16,05,38,9.00
2008,05,16,05,39,9.00
2008,05,16,05,40,9.00
2008,05,16,05,41,9.10
2008,05,16,05,42,9.10
2008,05,16,05,43,9.10
2008,05,16,05,44,9.10
2008,05,16,05,45,9.10
2008,05,16,05,46,9.20
2008,05,16,05,47,9.20
2008,05,16,05,48,9.20
2008,05,16,05,49,9.20
2008,05,16,05,50,9.20
2008,05,16,05,51,9.20
2008,05,16,05,52,9.20
2008,05,16,05,53,9.30
2008,05,16,05,54,9.30
2008,05,16,05,55,9.30
2008,05,16,05,56,9.30
2008,05,16,05,57,9.40
2008,05,16,05,58,9.40
2008,05,16,05,59,9.40
2008,05,16,06,00,9.40
2008,05,16,06,01,9.40
2008,05,16,06,02,9.50
2008,05,16,06,03,9.50
2008,05,16,06,04,9.50
2008,05,16,06,05,9.50
2008,05,16,06,06,9.50
2008,05,16,06,07,9.50
2008,05,16,06,08,9.60
2008,05,16,06,09,9.60
2008,05,16,06,10,9.60
2008,05,16,06,11,9.60
2008,05,16,06,12,9.60
2008,05,16,06,13,9.60
2008,05,16,06,14,9.60
2008,05,16,06,15,9.60
2008,05,16,06,16,9.60
2008,05,16,06,17,9.60
2008,05,16,06,18,9.60
2008,05,16,06,19,9.60
2008,05,16,06,20,9.60
2008,05,16,06,21,9.60
2008,05,16,06,22,9.60
2008,05,16,06,23,9.60
2008,05,16,06,24,9.70
2008,05,16,06,25,9.70
2008,05,16,06,26,9.70
2008,05,16,06,27,9.70
2008,05,16,06,28,9.70
2008,05,16,06,29,9.70
2008,05,16,06,30,9.80
2008,05,16,06,31,9.80
2008,05,16,06,32,9.80
2008,05,16,06,33,9.80
2008,05,16,06,34,9.90
2008,05,16,06,35,9.90
2008,05,16,06,36,9.90
2008,05,16,06,37,9.90
2008,05,16,06,38,10.00
2008,05,16,06,39,10.10
2008,05,16,06,40,10.10
2008,05,16,06,41,10.20
2008,05,16,06,42,10.30
2008,05,16,06,43,10.40
2008,05,16,06,44,10.40
2008,05,16,06,45,10.60
2008,05,16,06,46,10.60
2008,05,16,06,47,10.60
2008,05,16,06,48,10.70
2008,05,16,06,49,10.70
2008,05,16,06,50,10.90
2008,05,16,06,51,10.90
2008,05,16,06,52,10.90
2008,05,16,06,53,11.00
2008,05,16,06,54,11.10
2008,05,16,06,55,11.10
2008,05,16,06,56,11.20
2008,05,16,06,57,11.30
2008,05,16,06,58,11.30
2008,05,16,06,59,11.30
2008,05,16,07,00,11.40
2008,05,16,07,01,11.60
2008,05,16,07,02,11.60
2008,05,16,07,03,11.70
2008,05,16,07,04,11.80
2008,05,16,07,05,11.80
2008,05,16,07,06,11.80
2008,05,16,07,07,11.80
2008,05,16,07,08,11.90
2008,05,16,07,09,12.00
2008,05,16,07,10,12.10
2008,05,16,07,11,12.20
2008,05,16,07,12,12.20
2008,05,16,07,13,12.30
2008,05,16,07,14,12.30
2008,05,16,07,15,12.40
2008,05,16,07,16,12.50
2008,05,16,07,17,12.60
2008,05,16,07,18,12.60
2008,05,16,07,19,12.70
2008,05,16,07,20,12.80
2008,05,16,07,21,12.80
2008,05,16,07,22,13.00
2008,05,16,07,23,13.10
2008,05,16,07,24,13.10
2008,05,16,07,25,13.20
2008,05,16,07,26,13.30
2008,05,16,07,27,13.30
2008,05,16,07,28,13.30
2008,05,16,07,29,13.40
2008,05,16,07,30,13.50
2008,05,16,07,31,13.50
2008,05,16,07,32,13.60
2008,05,16,07,33,13.70
2008,05,16,07,34,13.70
2008,05,16,07,35,13.80
2008,05,16,07,36,13.90
2008,05,16,07,37,13.90
2008,05,16,07,38,14.00
2008,05,16,07,39,14.10
2008,05,16,07,40,14.20
2008,05,16,07,41,14.30
2008,05,16,07,42,14.40
2008,05,16,07,43,14.50
2008,05,16,07,44,14.60
2008,05,16,07,45,14.70
2008,05,16,07,46,14.80
2008,05,16,07,47,14.80
2008,05,16,07,48,14.80
2008,05,16,07,49,14.90
2008,05,16,07,50,14.90
2008,05,16,07,51,15.00
2008,05,16,07,52,15.10
2008,05,16,07,53,15.10
2008,05,16,07,54,15.20
2008,05,16,07,55,15.20
2008,05,16,07,56,15.30
2008,05,16,07,57,15.30
2008,05,16,07,58,15.30
2008,05,16,07,59,15.40
2008,05,16,08,00,15.40
2008,05,16,08,01,15.50
2008,05,16,08,02,15.50
2008,05,16,08,03,15.50
2008,05,16,08,04,15.60
2008,05,16,08,05,15.60
2008,05,16,08,06,15.70
2008,05,16,08,07,15.70
2008,05,16,08,08,15.80
2008,05,16,08,09,15.80
2008,05,16,08,10,15.80
2008,05,16,08,11,15.90
2008,05,16,08,12,15.90
2008,05,16,08,13,15.90
2008,05,16,08,14,15.90
2008,05,16,08,15,16.10
2008,05,16,08,16,16.10
2008,05,16,08,17,16.10
2008,05,16,08,18,16.10
2008,05,16,08,19,16.20
2008,05,16,08,20,16.20
2008,05,16,08,21,16.20
2008,05,16,08,22,16.20
2008,05,16,08,23,16.30
2008,05,16,08,24,16.30
2008,05,16,08,25,16.40
2008,05,16,08,26,16.40
2008,05,16,08,27,16.40
2008,05,16,08,28,16.50
2008,05,16,08,29,16.60
2008,05,16,08,30,16.60
2008,05,16,08,31,16.70
2008,05,16,08,32,16.70
2008,05,16,08,33,16.60
2008,05,16,08,34,16.50
2008,05,16,08,35,16.40
2008,05,16,08,36,16.40
2008,05,16,08,37,16.40
2008,05,16,08,38,16.40
2008,05,16,08,39,16.50
2008,05,16,08,40,16.50
2008,05,16,08,41,16.40
2008,05,16,08,42,16.40
2008,05,16,08,43,16.40
2008,05,16,08,44,16.40
2008,05,16,08,45,16.40
2008,05,16,08,46,16.40
2008,05,16,08,47,16.50
2008,05,16,08,48,16.40
2008,05,16,08,49,16.40
2008,05,16,08,50,16.40
2008,05,16,08,51,16.40
2008,05,16,08,52,16.40
2008,05,16,08,53,16.40
2008,05,16,08,54,16.40
2008,05,16,08,55,16.40
2008,05,16,08,56,16.40
2008,05,16,08,57,16.40
2008,05,16,08,58,16.40
2008,05,16,08,59,16.40
2008,05,16,09,00,16.50
2008,05,16,09,01,16.60
2008,05,16,09,02,16.70
2008,05,16,09,03,16.70
2008,05,16,09,04,16.70
2008,05,16,09,05,16.70
2008,05,16,09,06,16.70
2008,05,16,09,07,16.80
2008,05,16,09,08,16.80
2008,05,16,09,09,17.00
2008,05,16,09,10,17.00
2008,05,16,09,11,17.10
2008,05,16,09,12,17.20
2008,05,16,09,13,17.30
2008,05,16,09,14,17.30
2008,05,16,09,15,17.30
2008,05,16,09,16,17.30
2008,05,16,09,17,17.30
2008,05,16,09,18,17.30
2008,05,16,09,19,17.30
2008,05,16,09,20,17.30
2008,05,16,09,21,17.30
2008,05,16,09,22,17.30
2008,05,16,09,23,17.30
2008,05,16,09,24,17.40
2008,05,16,09,25,17.50
2008,05,16,09,26,17.60
2008,05,16,09,27,17.60
2008,05,16,09,28,17.70
2008,05,16,09,29,17.70
2008,05,16,09,30,17.70
2008,05,16,09,31,17.70
2008,05,16,09,32,17.80
2008,05,16,09,33,17.80
2008,05,16,09,34,17.80
2008,05,16,09,35,17.80
2008,05,16,09,36,17.80
2008,05,16,09,37,17.90
2008,05,16,09,38,17.90
2008,05,16,09,39,17.90
2008,05,16,09,40,17.90
2008,05,16,09,41,17.90
2008,05,16,09,42,18.10
2008,05,16,09,43,18.10
2008,05,16,09,44,18.10
2008,05,16,09,45,18.10
2008,05,16,09,46,18.10
2008,05,16,09,47,18.10
2008,05,16,09,48,18.10
2008,05,16,09,49,18.20
2008,05,16,09,50,18.20
2008,05,16,09,51,18.20
2008,05,16,09,52,18.20
2008,05,16,09,53,18.20
2008,05,16,09,54,18.20
2008,05,16,09,55,18.20
2008,05,16,09,56,18.20
2008,05,16,09,57,18.30
2008,05,16,09,58,18.30
2008,05,16,09,59,18.30
2008,05,16,10,00,18.30
2008,05,16,10,01,18.30
2008,05,16,10,02,18.40
2008,05,16,10,03,18.50
2008,05,16,10,04,18.50
2008,05,16,10,05,18.60
2008,05,16,10,06,18.60
2008,05,16,10,07,18.70
2008,05,16,10,08,18.60
2008,05,16,10,09,18.60
2008,05,16,10,10,18.50
2008,05,16,10,11,18.50
2008,05,16,10,12,18.60
2008,05,16,10,13,18.60
2008,05,16,10,14,18.70
2008,05,16,10,15,18.70
2008,05,16,10,16,18.70
2008,05,16,10,17,18.70
2008,05,16,10,18,18.80
2008,05,16,10,19,18.80
2008,05,16,10,20,18.90
2008,05,16,10,21,18.90
2008,05,16,10,22,18.90
2008,05,16,10,23,18.90
2008,05,16,10,24,19.10
2008,05,16,10,25,19.10
2008,05,16,10,26,19.10
2008,05,16,10,27,19.10
2008,05,16,10,28,19.10
2008,05,16,10,29,19.20
2008,05,16,10,30,19.30
2008,05,16,10,31,19.30
2008,05,16,10,32,19.40
2008,05,16,10,33,19.40
2008,05,16,10,34,19.30
2008,05,16,10,35,19.30
2008,05,16,10,36,19.30
2008,05,16,10,37,19.40
2008,05,16,10,38,19.40
2008,05,16,10,39,19.30
2008,05,16,10,40,19.40
2008,05,16,10,41,19.40
2008,05,16,10,42,19.40
2008,05,16,10,43,19.40
2008,05,16,10,44,19.40
2008,05,16,10,45,19.50
2008,05,16,10,46,19.50
2008,05,16,10,47,19.50
2008,05,16,10,48,19.50
2008,05,16,10,49,19.50
2008,05,16,10,50,19.60
2008,05,16,10,51,19.70
2008,05,16,10,52,19.80
2008,05,16,10,53,19.90
2008,05,16,10,54,19.90
2008,05,16,10,55,19.90
2008,05,16,10,56,20.00
2008,05,16,10,57,20.10
2008,05,16,10,58,20.20
2008,05,16,10,59,20.30
2008,05,16,11,00,20.30
2008,05,16,11,01,20.50
2008,05,16,11,02,20.50
2008,05,16,11,03,20.60
2008,05,16,11,04,20.60
2008,05,16,11,05,20.50
2008,05,16,11,06,20.50
2008,05,16,11,07,20.50
2008,05,16,11,08,20.50
2008,05,16,11,09,20.40
2008,05,16,11,10,20.40
2008,05,16,11,11,20.50
2008,05,16,11,12,20.60
2008,05,16,11,13,20.60
2008,05,16,11,14,20.50
2008,05,16,11,15,20.50
2008,05,16,11,16,20.50
2008,05,16,11,17,20.60
2008,05,16,11,18,20.70
2008,05,16,11,19,20.90
2008,05,16,11,20,20.90
2008,05,16,11,21,20.90
2008,05,16,11,22,20.90
2008,05,16,11,23,20.90
2008,05,16,11,24,21.00
2008,05,16,11,25,21.00
2008,05,16,11,26,21.00
2008,05,16,11,27,21.10
2008,05,16,11,28,21.10
2008,05,16,11,29,21.10
2008,05,16,11,30,21.10
2008,05,16,11,31,21.00
2008,05,16,11,32,21.00
2008,05,16,11,33,21.00
2008,05,16,11,34,21.00
2008,05,16,11,35,21.10
2008,05,16,11,36,21.20
2008,05,16,11,37,21.30
2008,05,16,11,38,21.30
2008,05,16,11,39,21.40
2008,05,16,11,40,21.40
2008,05,16,11,41,21.60
2008,05,16,11,42,21.60
2008,05,16,11,43,21.70
2008,05,16,11,44,21.60
2008,05,16,11,45,21.60
2008,05,16,11,46,21.60
2008,05,16,11,47,21.60
2008,05,16,11,48,21.50
2008,05,16,11,49,21.40
2008,05,16,11,50,21.50
2008,05,16,11,51,21.60
2008,05,16,11,52,21.60
2008,05,16,11,53,21.70
2008,05,16,11,54,21.80
2008,05,16,11,55,21.80
2008,05,16,11,56,21.70
2008,05,16,11,57,21.70
2008,05,16,11,58,21.80
2008,05,16,11,59,21.90
2008,05,16,12,00,22.00
2008,05,16,12,01,22.10
2008,05,16,12,02,22.20
2008,05,16,12,03,22.20
2008,05,16,12,04,22.20
2008,05,16,12,05,22.20
2008,05,16,12,06,22.10
2008,05,16,12,07,22.10
2008,05,16,12,08,22.00
2008,05,16,12,09,21.90
2008,05,16,12,10,21.80
2008,05,16,12,11,21.70
2008,05,16,12,12,21.70
2008,05,16,12,13,21.70
2008,05,16,12,14,21.70
2008,05,16,12,15,21.80
2008,05,16,12,16,21.80
2008,05,16,12,17,21.80
2008,05,16,12,18,21.80
2008,05,16,12,19,21.80
2008,05,16,12,20,21.80
2008,05,16,12,21,21.70
2008,05,16,12,22,21.70
2008,05,16,12,23,21.80
2008,05,16,12,24,21.90
2008,05,16,12,25,22.00
2008,05,16,12,26,22.10
2008,05,16,12,27,22.10
2008,05,16,12,28,22.10
2008,05,16,12,29,22.10
2008,05,16,12,30,22.00
2008,05,16,12,31,21.90
2008,05,16,12,32,22.00
2008,05,16,12,33,22.00
2008,05,16,12,34,21.90
2008,05,16,12,35,21.90
2008,05,16,12,36,21.90
2008,05,16,12,37,22.00
2008,05,16,12,38,22.00
2008,05,16,12,39,22.00
2008,05,16,12,40,22.10
2008,05,16,12,41,22.10
2008,05,16,12,42,22.20
2008,05,16,12,43,22.20
2008,05,16,12,44,22.10
2008,05,16,12,45,22.10
2008,05,16,12,46,22.00
2008,05,16,12,47,22.10
2008,05,16,12,48,22.00
2008,05,16,12,49,22.00
2008,05,16,12,50,22.10
2008,05,16,12,51,22.10
2008,05,16,12,52,22.20
2008,05,16,12,53,22.20
2008,05,16,12,54,22.30
2008,05,16,12,55,22.30
2008,05,16,12,56,22.40
2008,05,16,12,57,22.40
2008,05,16,12,58,22.40
2008,05,16,12,59,22.40
2008,05,16,13,00,22.50
2008,05,16,13,01,22.60
2008,05,16,13,02,22.60
2008,05,16,13,03,22.60
2008,05,16,13,04,22.60
2008,05,16,13,05,22.60
2008,05,16,13,06,22.60
2008,05,16,13,07,22.60
2008,05,16,13,08,22.60
2008,05,16,13,09,22.50
2008,05,16,13,10,22.50
2008,05,16,13,11,22.50
2008,05,16,13,12,22.50
2008,05,16,13,13,22.60
2008,05,16,13,14,22.60
2008,05,16,13,15,22.70
2008,05,16,13,16,22.70
2008,05,16,13,17,22.60
2008,05,16,13,18,22.60
2008,05,16,13,19,22.60
2008,05,16,13,20,22.50
2008,05,16,13,21,22.40
2008,05,16,13,22,22.40
2008,05,16,13,23,22.40
2008,05,16,13,24,22.40
2008,05,16,13,25,22.30
2008,05,16,13,26,22.30
2008,05,16,13,27,22.30
2008,05,16,13,28,22.30
2008,05,16,13,29,22.30
2008,05,16,13,30,22.40
2008,05,16,13,31,22.30
2008,05,16,13,32,22.40
2008,05,16,13,33,22.40
2008,05,16,13,34,22.40
2008,05,16,13,35,22.40
2008,05,16,13,36,22.40
2008,05,16,13,37,22.60
2008,05,16,13,38,22.70
2008,05,16,13,39,22.70
2008,05,16,13,40,22.80
2008,05,16,13,41,22.80
2008,05,16,13,42,22.90
2008,05,16,13,43,22.90
2008,05,16,13,44,22.90
2008,05,16,13,45,22.90
2008,05,16,13,46,22.90
2008,05,16,13,47,22.90
2008,05,16,13,48,22.90
2008,05,16,13,49,22.90
2008,05,16,13,50,22.90
2008,05,16,13,51,23.00
2008,05,16,13,52,23.10
2008,05,16,13,53,23.10
2008,05,16,13,54,23.10
2008,05,16,13,55,23.00
2008,05,16,13,56,22.90
2008,05,16,13,57,22.80
2008,05,16,13,58,22.70
2008,05,16,13,59,22.60
2008,05,16,14,00,22.60
2008,05,16,14,01,22.70
2008,05,16,14,02,22.80
2008,05,16,14,03,22.80
2008,05,16,14,04,22.80
2008,05,16,14,05,22.80
2008,05,16,14,06,22.80
2008,05,16,14,07,22.80
2008,05,16,14,08,22.80
2008,05,16,14,09,22.80
2008,05,16,14,10,22.80
2008,05,16,14,11,22.90
2008,05,16,14,12,22.90
2008,05,16,14,13,22.90
2008,05,16,14,14,22.90
2008,05,16,14,15,22.90
2008,05,16,14,16,23.00
2008,05,16,14,17,23.20
2008,05,16,14,18,23.30
2008,05,16,14,19,23.40
2008,05,16,14,20,23.40
2008,05,16,14,21,23.50
2008,05,16,14,22,23.60
2008,05,16,14,23,23.70
2008,05,16,14,24,23.70
2008,05,16,14,25,23.70
2008,05,16,14,26,23.60
2008,05,16,14,27,23.60
2008,05,16,14,28,23.60
2008,05,16,14,29,23.60
2008,05,16,14,30,23.60
2008,05,16,14,31,23.60
2008,05,16,14,32,23.60
2008,05,16,14,33,23.60
2008,05,16,14,34,23.70
2008,05,16,14,35,23.60
2008,05,16,14,36,23.60
2008,05,16,14,37,23.70
2008,05,16,14,38,23.70
2008,05,16,14,39,23.70
2008,05,16,14,40,23.70
2008,05,16,14,41,23.80
2008,05,16,14,42,23.80
2008,05,16,14,43,23.90
2008,05,16,14,44,23.90
2008,05,16,14,45,23.90
2008,05,16,14,46,24.00
2008,05,16,14,47,24.10
2008,05,16,14,48,24.20
2008,05,16,14,49,24.20
2008,05,16,14,50,24.30
2008,05,16,14,51,24.50
2008,05,16,14,52,24.60
2008,05,16,14,53,24.70
2008,05,16,14,54,24.80
2008,05,16,14,55,24.70
2008,05,16,14,56,24.80
2008,05,16,14,57,24.80
2008,05,16,14,58,24.90
2008,05,16,14,59,25.00
2008,05,16,15,00,25.10
2008,05,16,15,01,25.20
2008,05,16,15,02,25.20
2008,05,16,15,03,25.30
2008,05,16,15,04,25.30
2008,05,16,15,05,25.20
2008,05,16,15,06,25.20
2008,05,16,15,07,25.30
2008,05,16,15,08,25.30
2008,05,16,15,09,25.20
2008,05,16,15,10,25.30
2008,05,16,15,11,25.30
2008,05,16,15,12,25.40
2008,05,16,15,13,25.50
2008,05,16,15,14,25.50
2008,05,16,15,15,25.50
2008,05,16,15,16,25.50
2008,05,16,15,17,25.50
2008,05,16,15,18,25.50
2008,05,16,15,19,25.50
2008,05,16,15,20,25.60
2008,05,16,15,21,25.60
2008,05,16,15,22,25.60
2008,05,16,15,23,25.60
2008,05,16,15,24,25.60
2008,05,16,15,25,25.60
2008,05,16,15,26,25.70
2008,05,16,15,27,25.80
2008,05,16,15,28,25.90
2008,05,16,15,29,25.90
2008,05,16,15,30,26.00
2008,05,16,15,31,26.00
2008,05,16,15,32,26.00
2008,05,16,15,33,26.20
2008,05,16,15,34,26.10
2008,05,16,15,35,26.10
2008,05,16,15,36,26.00
2008,05,16,15,37,26.00
2008,05,16,15,38,26.00
2008,05,16,15,39,25.90
2008,05,16,15,40,25.90
2008,05,16,15,41,25.90
2008,05,16,15,42,25.90
2008,05,16,15,43,26.00
2008,05,16,15,44,26.00
2008,05,16,15,45,26.10
2008,05,16,15,46,26.10
2008,05,16,15,47,26.10
2008,05,16,15,48,26.10
2008,05,16,15,49,26.00
2008,05,16,15,50,25.90
2008,05,16,15,51,25.90
2008,05,16,15,52,25.90
2008,05,16,15,53,25.90
2008,05,16,15,54,25.90
2008,05,16,15,55,25.90
2008,05,16,15,56,26.00
2008,05,16,15,57,26.00
2008,05,16,15,58,26.00
2008,05,16,15,59,26.00
2008,05,16,16,00,26.00
2008,05,16,16,01,26.00
2008,05,16,16,02,26.00
2008,05,16,16,03,26.00
2008,05,16,16,04,26.00
2008,05,16,16,05,25.90
2008,05,16,16,06,25.90
2008,05,16,16,07,25.80
2008,05,16,16,08,25.80
2008,05,16,16,09,25.80
2008,05,16,16,10,25.80
2008,05,16,16,11,25.80
2008,05,16,16,12,25.90
2008,05,16,16,13,25.80
2008,05,16,16,14,25.80
2008,05,16,16,15,25.80
2008,05,16,16,16,25.90
2008,05,16,16,17,25.90
2008,05,16,16,18,25.90
2008,05,16,16,19,25.80
2008,05,16,16,20,25.80
2008,05,16,16,21,25.90
2008,05,16,16,22,25.90
2008,05,16,16,23,25.90
2008,05,16,16,24,26.00
2008,05,16,16,25,26.00
2008,05,16,16,26,26.00
2008,05,16,16,27,26.10
2008,05,16,16,28,26.10
2008,05,16,16,29,26.20
2008,05,16,16,30,26.30
2008,05,16,16,31,26.40
2008,05,16,16,32,26.40
2008,05,16,16,33,26.50
2008,05,16,16,34,26.60
2008,05,16,16,35,26.60
2008,05,16,16,36,26.60
2008,05,16,16,37,26.60
2008,05,16,16,38,26.60
2008,05,16,16,39,26.60
2008,05,16,16,40,26.60
2008,05,16,16,41,26.70
2008,05,16,16,42,26.70
2008,05,16,16,43,26.70
2008,05,16,16,44,26.60
2008,05,16,16,45,26.60
2008,05,16,16,46,26.60
2008,05,16,16,47,26.60
2008,05,16,16,48,26.60
2008,05,16,16,49,26.50
2008,05,16,16,50,26.40
2008,05,16,16,51,26.60
2008,05,16,16,52,26.60
2008,05,16,16,53,26.60
2008,05,16,16,54,26.60
2008,05,16,16,55,26.60
2008,05,16,16,56,26.60
2008,05,16,16,57,26.60
2008,05,16,16,58,26.60
2008,05,16,16,59,26.70
2008,05,16,17,00,26.70
2008,05,16,17,01,26.80
2008,05,16,17,02,26.80
2008,05,16,17,03,26.90
2008,05,16,17,04,26.90
2008,05,16,17,05,26.90
2008,05,16,17,06,27.10
2008,05,16,17,07,27.10
2008,05,16,17,08,27.20
2008,05,16,17,09,27.20
2008,05,16,17,10,27.20
2008,05,16,17,11,27.10
2008,05,16,17,12,27.10
2008,05,16,17,13,27.00
2008,05,16,17,14,26.90
2008,05,16,17,15,26.90
2008,05,16,17,16,26.80
2008,05,16,17,17,26.90
2008,05,16,17,18,27.00
2008,05,16,17,19,27.10
2008,05,16,17,20,27.20
2008,05,16,17,21,27.20
2008,05,16,17,22,27.20
2008,05,16,17,23,27.20
2008,05,16,17,24,27.30
2008,05,16,17,25,27.30
2008,05,16,17,26,27.30
2008,05,16,17,27,27.30
2008,05,16,17,28,27.30
2008,05,16,17,29,27.30
2008,05,16,17,30,27.30
2008,05,16,17,31,27.30
2008,05,16,17,32,27.30
2008,05,16,17,33,27.30
2008,05,16,17,34,27.30
2008,05,16,17,35,27.30